This is the latest recevied weather packets stored in our database for station/object K1LVA. If no packets are shown the sender has not sent any weather packets the latest 10 day(s).
| Time | Temp. | Humidity | Pressure | Rain* | Wind** | Luminosity | Snow |
|---|---|---|---|---|---|---|---|
| 1778279518 | 21.67° C | 63% | 1014.4 hPa | 0 mm | - | 72 W/m² | - |
| 1778279215 | 21.67° C | 60% | 1014.6 hPa | 0 mm | - | 80 W/m² | - |
| 1778278912 | 21.67° C | 60% | 1014.4 hPa | 0 mm | - | 78 W/m² | - |
| 1778278608 | 21.67° C | 57% | 1014.5 hPa | 0 mm | - | 95 W/m² | - |
| 1778278304 | 21.67° C | 58% | 1014.6 hPa | 0 mm | - | 104 W/m² | - |
| 1778278001 | 21.67° C | 59% | 1014.4 hPa | 0 mm | - | 108 W/m² | - |
| 1778277698 | 21.67° C | 60% | 1014.5 hPa | 0 mm | - | 104 W/m² | - |
| 1778277394 | 21.67° C | 58% | 1014.4 hPa | 0 mm | - | 113 W/m² | - |
| 1778277091 | 22.22° C | 57% | 1014.2 hPa | 0 mm | - | 131 W/m² | - |
| 1778276788 | 22.22° C | 55% | 1014.3 hPa | 0 mm | - | 136 W/m² | - |
| 1778276485 | 22.22° C | 57% | 1014.3 hPa | 0 mm | - | 147 W/m² | - |
| 1778276182 | 22.22° C | 57% | 1014.1 hPa | 0 mm | - | 144 W/m² | - |
| 1778275878 | 22.22° C | 56% | 1014.4 hPa | 0 mm | - | 158 W/m² | - |
| 1778275574 | 22.22° C | 54% | 1014.3 hPa | 0 mm | - | 193 W/m² | - |
| 1778275271 | 22.78° C | 53% | 1014.4 hPa | 0 mm | - | 203 W/m² | - |
| 1778274966 | 22.78° C | 53% | 1014.2 hPa | 0 mm | - | 210 W/m² | - |
| 1778274663 | 22.78° C | 53% | 1014.2 hPa | 0 mm | - | 202 W/m² | - |
| 1778274359 | 22.78° C | 52% | 1014.1 hPa | 0 mm | - | 252 W/m² | - |
| 1778274057 | 23.33° C | 51% | 1014.1 hPa | 0 mm | - | 280 W/m² | - |
| 1778273754 | 23.33° C | 53% | 1014.2 hPa | 0 mm | - | 281 W/m² | - |
| 1778273450 | 22.78° C | 52% | 1014.5 hPa | 0 mm | - | 357 W/m² | - |
| 1778273147 | 22.78° C | 55% | 1014.5 hPa | 0 mm | - | 250 W/m² | - |
| 1778272843 | 22.78° C | 55% | 1014.2 hPa | 0 mm | - | 261 W/m² | - |
| 1778272539 | 22.78° C | 50% | 1014.4 hPa | 0 mm | - | 254 W/m² | - |
| 1778272235 | 23.33° C | 50% | 1014.3 hPa | 0 mm | - | 275 W/m² | - |
* Rain latest hour (hover to see other rain measurements)
** Current wind speed in m/s (hover to see current wind gust speed)